Location: Barcelona
(41.3830°N, 2.1830°E)
Time: 00:23:49
(UTC+02:00)

ISS - Pass Details

Date: 19 July 2019
Orbit: 409 x 418 km, 51.6° (Epoch: 22 July)

Event Time Altitude Azimuth Distance (km) Brightness Sun altitude
Rises 23:47:41 0° 274° (W) 2,350 0.6 -20.9°
Reaches altitude 10° 23:50:10 10° 292° (WNW) 1,487 -0.2 -21.2°
Maximum altitude 23:52:43 20° 343° (NNW) 1,020 -1.0 -21.4°
Drops below altitude 10° 23:55:17 10° 33° (NNE) 1,486 -0.7 -21.7°
Sets 23:57:45 0° 51° (NE) 2,348 0.2 -21.9°
